Date,Installs,Update checks
2021-03-16,9,0
2021-03-17,24,6
2021-03-18,16,7
2021-03-19,18,13
2021-03-20,20,18
2021-03-21,12,21
2021-03-22,10,24
2021-03-23,11,17
2021-03-24,8,23
2021-03-25,9,36
2021-03-26,17,37
2021-03-27,11,32
2021-03-28,11,32
2021-03-29,16,27
2021-03-30,20,44
2021-03-31,9,35
2021-04-01,5,39
2021-04-02,7,40
2021-04-03,10,26
2021-04-04,13,36
2021-04-05,11,46
2021-04-06,14,59
2021-04-07,13,51
2021-04-08,7,53
2021-04-09,6,50
2021-04-10,16,71
2021-04-11,12,50
2021-04-12,14,52
2021-04-13,17,57
2021-04-14,19,56
2021-04-15,19,62
2021-04-16,19,90
2021-04-17,13,90
2021-04-18,12,92
2021-04-19,21,106
2021-04-20,12,102
2021-04-21,12,118
2021-04-22,20,107
2021-04-23,10,112
2021-04-24,16,112
2021-04-25,18,125
2021-04-26,11,111
2021-04-27,10,106
2021-04-28,11,127
2021-04-29,5,116
2021-04-30,15,121
2021-05-01,14,101
2021-05-02,14,101
2021-05-03,8,108
2021-05-04,6,108
2021-05-05,14,125
2021-05-06,12,129
2021-05-07,22,138
2021-05-08,13,132
2021-05-09,10,120
2021-05-10,14,131
2021-05-11,27,132
2021-05-12,35,142
2021-05-13,27,165
2021-05-14,25,170
2021-05-15,18,148
2021-05-16,12,149
2021-05-17,19,173
2021-05-18,11,169
2021-05-19,13,169
2021-05-20,16,169
2021-05-21,23,184
2021-05-22,25,163
2021-05-23,30,159
2021-05-24,25,178
2021-05-25,20,176
2021-05-26,20,181
2021-05-27,20,178
2021-05-28,21,172
2021-05-29,19,185
2021-05-30,20,150
2021-05-31,17,204
2021-06-01,14,174
2021-06-02,9,188
2021-06-03,19,180
2021-06-04,15,180
2021-06-05,11,116
2021-06-06,22,180
2021-06-07,18,203
2021-06-08,9,207
2021-06-09,10,211
2021-06-10,18,202
2021-06-11,21,198
2021-06-12,15,173
2021-06-13,32,203
2021-06-14,30,187
2021-06-15,20,226
2021-06-16,18,226
2021-06-17,15,250
2021-06-18,15,231
2021-06-19,18,215
2021-06-20,19,225
2021-06-21,20,243
2021-06-22,21,240
2021-06-23,23,237
2021-06-24,25,252
2021-06-25,13,242
2021-06-26,21,232
2021-06-27,26,223
2021-06-28,7,263
2021-06-29,13,249
2021-06-30,23,248
2021-07-01,16,239
2021-07-02,17,262
2021-07-03,17,257
2021-07-04,17,238
2021-07-05,14,248
2021-07-06,19,252
2021-07-07,13,242
2021-07-08,14,245
2021-07-09,12,252
2021-07-10,18,237
2021-07-11,13,228
2021-07-12,13,267
2021-07-13,13,239
2021-07-14,15,264
2021-07-15,8,245
2021-07-16,16,253
2021-07-17,10,234
2021-07-18,10,8
2021-07-19,13,51
2021-07-20,13,287
2021-07-21,15,259
2021-07-22,3,263
2021-07-23,11,273
2021-07-24,20,260
2021-07-25,23,246
2021-07-26,14,273
2021-07-27,16,282
2021-07-28,21,297
2021-07-29,17,298
2021-07-30,14,274
2021-07-31,14,276
2021-08-01,15,274
2021-08-02,16,299
2021-08-03,15,291
2021-08-04,20,315
2021-08-05,15,317
2021-08-06,16,297
2021-08-07,23,286
2021-08-08,16,279
2021-08-09,18,327
2021-08-10,18,315
2021-08-11,23,297
2021-08-12,13,307
2021-08-13,14,316
2021-08-14,19,311
2021-08-15,18,288
2021-08-16,14,306
2021-08-17,11,309
2021-08-18,19,314
2021-08-19,17,318
2021-08-20,18,320
2021-08-21,20,305
2021-08-22,23,314
2021-08-23,14,336
2021-08-24,30,349
2021-08-25,27,343
2021-08-26,30,347
2021-08-27,22,358
2021-08-28,24,306
2021-08-29,20,320
2021-08-30,22,343
2021-08-31,10,361
2021-09-01,20,372
2021-09-02,14,352
2021-09-03,14,358
2021-09-04,10,325
2021-09-05,16,332
2021-09-06,8,368
2021-09-07,15,335
2021-09-08,7,357
2021-09-09,17,350
2021-09-10,21,396
2021-09-11,19,334
2021-09-12,13,352
2021-09-13,16,370
2021-09-14,14,369
2021-09-15,15,354
2021-09-16,13,384
2021-09-17,13,373
2021-09-18,8,369
2021-09-19,28,351
2021-09-20,28,326
2021-09-21,17,336
2021-09-22,24,402
2021-09-23,24,385
2021-09-24,15,406
2021-09-25,16,388
2021-09-26,20,404
2021-09-27,14,401
2021-09-28,18,393
2021-09-29,24,412
2021-09-30,17,383
2021-10-01,22,369
2021-10-02,25,355
2021-10-03,15,350
2021-10-04,19,364
2021-10-05,13,368
2021-10-06,10,368
2021-10-07,19,373
2021-10-08,13,398
2021-10-09,25,411
2021-10-10,21,377
2021-10-11,9,436
2021-10-12,11,446
2021-10-13,13,408
2021-10-14,17,442
2021-10-15,14,453
2021-10-16,16,418
2021-10-17,13,427
2021-10-18,32,443
2021-10-19,19,443
2021-10-20,18,454
2021-10-21,17,447
2021-10-22,16,443
2021-10-23,2,422
2021-10-24,15,442
2021-10-25,21,459
2021-10-26,15,461
2021-10-27,19,456
2021-10-28,9,473
2021-10-29,11,449
2021-10-30,11,446
2021-10-31,12,414
2021-11-01,22,479
2021-11-02,23,459
2021-11-03,23,459
2021-11-04,13,460
2021-11-05,15,458
2021-11-06,22,458
2021-11-07,18,452
2021-11-08,10,463
2021-11-09,13,484
2021-11-10,8,461
2021-11-11,14,449
2021-11-12,22,480
2021-11-13,16,427
2021-11-14,23,401
2021-11-15,27,489
2021-11-16,18,458
2021-11-17,19,498
2021-11-18,20,467
2021-11-19,22,477
2021-11-20,29,440
2021-11-21,19,453
2021-11-22,14,477
2021-11-23,23,494
2021-11-24,15,481
2021-11-25,15,505
2021-11-26,24,488
2021-11-27,33,469
2021-11-28,26,456
2021-11-29,21,517
2021-11-30,14,508
2021-12-01,19,522
2021-12-02,12,503
2021-12-03,21,541
2021-12-04,21,456
2021-12-05,13,477
2021-12-06,17,516
2021-12-07,16,515
2021-12-08,15,533
2021-12-09,11,527
2021-12-10,16,514
2021-12-11,16,506
2021-12-12,18,506
2021-12-13,13,514
2021-12-14,12,516
2021-12-15,15,524
2021-12-16,17,516
2021-12-17,15,509
2021-12-18,12,469
2021-12-19,15,489
2021-12-20,22,518
2021-12-21,22,511
2021-12-22,15,550
2021-12-23,18,518
2021-12-24,17,532
2021-12-25,22,503
2021-12-26,17,509
2021-12-27,14,529
2021-12-28,14,532
2021-12-29,14,501
2021-12-30,14,519
2021-12-31,16,523
2022-01-01,13,492
2022-01-02,18,494
2022-01-03,10,510
2022-01-04,16,558
2022-01-05,17,542
2022-01-06,16,535
2022-01-07,11,558
2022-01-08,14,495
2022-01-09,11,37
2022-01-10,8,0
2022-01-11,20,554
2022-01-12,7,538
2022-01-13,24,543
2022-01-14,23,542
2022-01-15,16,502
2022-01-16,31,523
2022-01-17,29,538
2022-01-18,13,565
2022-01-19,13,537
2022-01-20,12,546
2022-01-21,13,507
2022-01-22,16,492
2022-01-23,5,514
2022-01-24,14,530
2022-01-25,17,516
2022-01-26,17,535
2022-01-27,11,517
2022-01-28,20,516
2022-01-29,16,470
2022-01-30,17,432
2022-01-31,12,409
2022-02-01,16,447
2022-02-02,14,421
2022-02-03,10,454
2022-02-04,14,421
2022-02-05,38,446
2022-02-06,31,502
2022-02-07,33,548
2022-02-08,28,575
2022-02-09,28,551
2022-02-10,12,561
2022-02-11,27,563
2022-02-12,20,523
2022-02-13,30,528
2022-02-14,36,587
2022-02-15,39,579
2022-02-16,31,594
2022-02-17,18,634
2022-02-18,14,591
2022-02-19,9,578
2022-02-20,14,569
2022-02-21,21,638
2022-02-22,22,630
2022-02-23,14,600
2022-02-24,36,603
2022-02-25,31,660
2022-02-26,28,578
2022-02-27,29,574
2022-02-28,28,669
2022-03-01,28,639
2022-03-02,29,642
2022-03-03,21,656
2022-03-04,15,647
2022-03-05,21,603
2022-03-06,30,581
2022-03-07,25,664
2022-03-08,27,648
2022-03-09,27,676
2022-03-10,23,653
2022-03-11,33,680
2022-03-12,20,603
2022-03-13,28,596
2022-03-14,36,688
2022-03-15,18,672
2022-03-16,37,675
2022-03-17,42,674
2022-03-18,45,702
2022-03-19,42,686
2022-03-20,49,654
2022-03-21,36,681
2022-03-22,37,723
2022-03-23,34,702
2022-03-24,24,715
2022-03-25,40,751
2022-03-26,28,692
2022-03-27,23,674
2022-03-28,46,719
2022-03-29,25,717
2022-03-30,30,717
2022-03-31,20,782
2022-04-01,20,701
2022-04-02,34,712
2022-04-03,38,622
2022-04-04,30,678
2022-04-05,32,638
2022-04-06,28,710
2022-04-07,26,712
2022-04-08,23,720
2022-04-09,38,702
2022-04-10,21,666
2022-04-11,17,716
2022-04-12,40,736
2022-04-13,31,765
2022-04-14,51,725
2022-04-15,44,764
2022-04-16,27,679
2022-04-17,23,670
2022-04-18,27,710
2022-04-19,20,737
2022-04-20,23,750
2022-04-21,34,716
2022-04-22,34,739
2022-04-23,35,680
2022-04-24,22,717
2022-04-25,32,695
2022-04-26,25,738
2022-04-27,17,748
2022-04-28,18,710
2022-04-29,22,744
2022-04-30,19,666
2022-05-01,23,641
2022-05-02,33,643
2022-05-03,34,659
2022-05-04,26,671
2022-05-05,27,712
2022-05-06,22,734
2022-05-07,17,724
2022-05-08,19,641
2022-05-09,23,719
2022-05-10,34,715
2022-05-11,27,773
2022-05-12,22,752
2022-05-13,16,748
2022-05-14,8,710
2022-05-15,14,675
2022-05-16,32,709
2022-05-17,25,697
2022-05-18,14,740
2022-05-19,15,714
2022-05-20,26,707
2022-05-21,28,667
2022-05-22,33,649
2022-05-23,33,692
2022-05-24,36,724
2022-05-25,26,702
2022-05-26,20,712
2022-05-27,25,708
2022-05-28,20,665
2022-05-29,15,642
2022-05-30,22,699
2022-05-31,15,718
2022-06-01,17,703
2022-06-02,13,690
2022-06-03,10,611
2022-06-04,17,635
2022-06-05,31,594
2022-06-06,33,698
2022-06-07,30,685
2022-06-08,22,693
2022-06-09,17,712
2022-06-10,17,722
2022-06-11,21,638
2022-06-12,18,655
2022-06-13,16,722
2022-06-14,19,701
2022-06-15,17,662
2022-06-16,23,714
2022-06-17,12,688
2022-06-18,14,679
2022-06-19,17,637
2022-06-20,22,704
2022-06-21,9,714
2022-06-22,18,694
2022-06-23,22,674
2022-06-24,16,692
2022-06-25,12,640
2022-06-26,22,627
2022-06-27,28,672
2022-06-28,16,693
2022-06-29,11,680
2022-06-30,26,703
2022-07-01,22,698
2022-07-02,17,616
2022-07-03,15,632
2022-07-04,18,680
2022-07-05,24,664
2022-07-06,13,662
2022-07-07,8,695
2022-07-08,22,681
2022-07-09,15,624
2022-07-10,17,618
2022-07-11,25,675
2022-07-12,12,647
2022-07-13,23,686
2022-07-14,24,674
2022-07-15,30,664
2022-07-16,16,604
2022-07-17,19,609
2022-07-18,14,658
2022-07-19,13,700
2022-07-20,12,666
2022-07-21,11,667
2022-07-22,16,695
2022-07-23,24,619
2022-07-24,17,417
2022-07-25,21,683
2022-07-26,21,702
2022-07-27,19,683
2022-07-28,22,681
2022-07-29,21,671
2022-07-30,16,597
2022-07-31,11,626
2022-08-01,8,679
2022-08-02,15,706
2022-08-03,15,647
2022-08-04,15,659
2022-08-05,14,682
2022-08-06,19,610
2022-08-07,22,626
2022-08-08,9,676
2022-08-09,13,683
2022-08-10,16,659
2022-08-11,10,680
2022-08-12,8,688
2022-08-13,13,595
2022-08-14,12,598
2022-08-15,11,655
2022-08-16,15,660
2022-08-17,13,667
2022-08-18,7,635
2022-08-19,20,658
2022-08-20,18,633
2022-08-21,11,613
2022-08-22,13,696
2022-08-23,8,626
2022-08-24,8,640
2022-08-25,8,678
2022-08-26,13,651
2022-08-27,12,593
2022-08-28,10,607
2022-08-29,14,665
2022-08-30,12,694
2022-08-31,12,678
2022-09-01,10,659
2022-09-02,11,699
2022-09-03,13,615
2022-09-04,13,615
2022-09-05,8,682
2022-09-06,3,669
2022-09-07,7,663
2022-09-08,10,648
2022-09-09,6,650
2022-09-10,13,589
2022-09-11,6,596
2022-09-12,13,620
2022-09-13,8,666
2022-09-14,15,647
2022-09-15,17,647
2022-09-16,5,650
2022-09-17,17,588
2022-09-18,7,603
2022-09-19,9,648
2022-09-20,9,657
2022-09-21,7,653
2022-09-22,7,668
2022-09-23,10,614
2022-09-24,15,611
2022-09-25,8,580
2022-09-26,16,654
2022-09-27,16,693
2022-09-28,14,648
2022-09-29,9,649
2022-09-30,18,602
2022-10-01,16,603
2022-10-02,11,545
2022-10-03,10,580
2022-10-04,5,587
2022-10-05,11,584
2022-10-06,14,601
2022-10-07,17,596
2022-10-08,4,635
2022-10-09,10,609
2022-10-10,11,630
2022-10-11,5,638
2022-10-12,13,658
2022-10-13,13,657
2022-10-14,13,641
2022-10-15,12,553
2022-10-16,10,602
2022-10-17,8,643
2022-10-18,11,649
2022-10-19,11,616
2022-10-20,10,645
2022-10-21,15,608
2022-10-22,11,591
2022-10-23,14,535
2022-10-24,14,661
2022-10-25,18,627
2022-10-26,13,653
2022-10-27,16,629
2022-10-28,13,630
2022-10-29,14,582
2022-10-30,14,608
2022-10-31,11,629
2022-11-01,13,639
2022-11-02,17,626
2022-11-03,29,655
2022-11-04,16,627
2022-11-05,13,569
2022-11-06,14,581
2022-11-07,15,598
2022-11-08,22,631
2022-11-09,11,620
2022-11-10,12,631
2022-11-11,19,640
2022-11-12,25,600
2022-11-13,21,574
2022-11-14,18,662
2022-11-15,25,636
2022-11-16,27,654
2022-11-17,19,593
2022-11-18,14,586
2022-11-19,19,540
2022-11-20,25,534
2022-11-21,25,608
2022-11-22,17,651
2022-11-23,33,643
2022-11-24,38,684
2022-11-25,26,655
2022-11-26,33,587
2022-11-27,31,584
2022-11-28,31,653
2022-11-29,29,637
2022-11-30,21,633
2022-12-01,20,638
2022-12-02,20,646
2022-12-03,30,582
2022-12-04,31,604
2022-12-05,14,605
2022-12-06,13,642
2022-12-07,17,615
2022-12-08,21,643
2022-12-09,20,628
2022-12-10,18,585
2022-12-11,24,564
2022-12-12,16,619
2022-12-13,19,589
2022-12-14,17,577
2022-12-15,17,607
2022-12-16,24,564
2022-12-17,15,512
2022-12-18,18,517
2022-12-19,33,591
2022-12-20,23,588
2022-12-21,18,502
2022-12-22,11,551
2022-12-23,15,526
2022-12-24,18,496
2022-12-25,17,595
2022-12-26,10,565
2022-12-27,13,575
2022-12-28,22,598
2022-12-29,12,569
2022-12-30,17,576
2022-12-31,21,535
2023-01-01,24,526
2023-01-02,16,599
2023-01-03,15,667
2023-01-04,22,662
2023-01-05,20,683
2023-01-06,12,638
2023-01-07,9,598
2023-01-08,19,585
2023-01-09,23,666
2023-01-10,11,669
2023-01-11,9,655
2023-01-12,8,664
2023-01-13,11,640
2023-01-14,19,603
2023-01-15,18,599
2023-01-16,18,625
2023-01-17,21,613
2023-01-18,9,605
2023-01-19,5,585
2023-01-20,16,526
2023-01-21,15,496
2023-01-22,10,475
2023-01-23,11,515
2023-01-24,7,500
2023-01-25,14,521
2023-01-26,37,530
2023-01-27,30,541
2023-01-28,28,567
2023-01-29,25,605
2023-01-30,27,638
2023-01-31,17,643
2023-02-01,17,667
2023-02-02,21,701
2023-02-03,10,664
2023-02-04,12,576
2023-02-05,15,620
2023-02-06,9,662
2023-02-07,19,664
2023-02-08,4,676
2023-02-09,18,653
2023-02-10,18,677
2023-02-11,22,617
2023-02-12,14,625
2023-02-13,22,674
2023-02-14,23,658
2023-02-15,7,674
2023-02-16,17,671
2023-02-17,14,640
2023-02-18,13,632
2023-02-19,11,601
2023-02-20,14,676
2023-02-21,13,657
2023-02-22,20,670
2023-02-23,12,668
2023-02-24,16,666
2023-02-25,12,601
2023-02-26,16,599
2023-02-27,12,653
2023-02-28,11,667
2023-03-01,8,656
2023-03-02,11,643
2023-03-03,10,646
2023-03-04,12,587
2023-03-05,12,616
2023-03-06,16,642
2023-03-07,16,654
2023-03-08,11,636
2023-03-09,30,627
2023-03-10,32,648
2023-03-11,28,606
2023-03-12,15,599
2023-03-13,10,647
2023-03-14,12,645
2023-03-15,11,657
2023-03-16,12,639
2023-03-17,7,649
2023-03-18,9,587
2023-03-19,8,582
2023-03-20,16,647
2023-03-21,12,699
2023-03-22,18,631
2023-03-23,13,632
2023-03-24,11,638
2023-03-25,9,575
2023-03-26,11,577
2023-03-27,14,631
2023-03-28,6,641
2023-03-29,5,596
2023-03-30,10,633
2023-03-31,10,630
2023-04-01,5,587
2023-04-02,6,577
2023-04-03,7,634
2023-04-04,13,619
2023-04-05,8,574
2023-04-06,12,652
2023-04-07,18,634
2023-04-08,17,579
2023-04-09,14,571
2023-04-10,12,616
2023-04-11,11,636
2023-04-12,14,628
2023-04-13,3,607
2023-04-14,14,620
2023-04-15,9,555
2023-04-16,8,586
2023-04-17,13,629
2023-04-18,11,600
2023-04-19,13,616
2023-04-20,6,588
2023-04-21,16,615
2023-04-22,14,536
2023-04-23,9,603
2023-04-24,6,594
2023-04-25,7,607
2023-04-26,7,604
2023-04-27,5,583
2023-04-28,12,598
2023-04-29,10,488
2023-04-30,7,500
2023-05-01,9,524
2023-05-02,6,510
2023-05-03,11,566
2023-05-04,5,583
2023-05-05,9,605
2023-05-06,5,566
2023-05-07,12,552
2023-05-08,8,601
2023-05-09,6,592
2023-05-10,10,561
2023-05-11,10,563
2023-05-12,7,608
2023-05-13,15,535
2023-05-14,14,553
2023-05-15,11,623
2023-05-16,7,590
2023-05-17,6,587
2023-05-18,9,573
2023-05-19,10,564
2023-05-20,11,522
2023-05-21,8,514
2023-05-22,4,595
2023-05-23,9,579
2023-05-24,4,557
2023-05-25,12,598
2023-05-26,11,582
2023-05-27,8,531
2023-05-28,6,519
2023-05-29,10,598
2023-05-30,6,573
2023-05-31,17,595
2023-06-01,13,569
2023-06-02,12,586
2023-06-03,6,516
2023-06-04,7,524
2023-06-05,13,565
2023-06-06,14,580
2023-06-07,11,566
2023-06-08,11,569
2023-06-09,7,547
2023-06-10,8,491
2023-06-11,10,534
2023-06-12,11,548
2023-06-13,4,544
2023-06-14,14,543
2023-06-15,6,567
2023-06-16,6,542
2023-06-17,4,495
2023-06-18,10,488
2023-06-19,4,577
2023-06-20,4,540
2023-06-21,10,506
2023-06-22,8,479
2023-06-23,11,448
2023-06-24,9,480
2023-06-25,15,545
2023-06-26,8,545
2023-06-27,8,553
2023-06-28,11,540
2023-06-29,10,521
2023-06-30,11,546
2023-07-01,12,474
2023-07-02,58,484
2023-07-03,93,544
2023-07-04,78,553
2023-07-05,62,540
2023-07-06,71,553
2023-07-07,75,531
2023-07-08,31,494
2023-07-09,21,471
2023-07-10,7,556
2023-07-11,14,531
2023-07-12,13,549
2023-07-13,14,544
2023-07-14,13,543
2023-07-15,17,467
2023-07-16,14,517
2023-07-17,17,533
2023-07-18,17,575
2023-07-19,8,534
2023-07-20,17,526
2023-07-21,7,517
2023-07-22,21,492
2023-07-23,19,481
2023-07-24,21,551
2023-07-25,19,577
2023-07-26,18,559
2023-07-27,16,564
2023-07-28,16,528
2023-07-29,20,471
2023-07-30,16,471
2023-07-31,20,557
2023-08-01,17,534
2023-08-02,25,535
2023-08-03,26,542
2023-08-04,13,548
2023-08-05,16,467
2023-08-06,11,493
2023-08-07,17,538
2023-08-08,20,542
2023-08-09,12,545
2023-08-10,10,508
2023-08-11,14,505
2023-08-12,15,485
2023-08-13,18,476
2023-08-14,12,538
2023-08-15,13,522
2023-08-16,9,538
2023-08-17,9,534
2023-08-18,11,550
2023-08-19,6,465
2023-08-20,9,452
2023-08-21,9,521
2023-08-22,11,501
2023-08-23,10,543
2023-08-24,6,530
2023-08-25,10,532
2023-08-26,10,465
2023-08-27,14,491
2023-08-28,15,539
2023-08-29,13,528
2023-08-30,10,524
2023-08-31,7,520
2023-09-01,8,539
2023-09-02,16,479
2023-09-03,17,482
2023-09-04,9,522
2023-09-05,13,512
2023-09-06,12,551
2023-09-07,12,515
2023-09-08,8,546
2023-09-09,11,486
2023-09-10,16,461
2023-09-11,15,503
2023-09-12,7,505
2023-09-13,16,502
2023-09-14,41,494
2023-09-15,47,491
2023-09-16,36,489
2023-09-17,35,448
2023-09-18,22,529
2023-09-19,31,505
2023-09-20,33,499
2023-09-21,36,511
2023-09-22,22,539
2023-09-23,26,462
2023-09-24,31,487
2023-09-25,28,526
2023-09-26,25,530
2023-09-27,28,520
2023-09-28,19,499
2023-09-29,32,416
2023-09-30,21,424
2023-10-01,31,443
2023-10-02,20,436
2023-10-03,29,462
2023-10-04,43,463
2023-10-05,22,499
2023-10-06,33,507
2023-10-07,26,542
2023-10-08,19,524
2023-10-09,15,555
2023-10-10,20,537
2023-10-11,16,550
2023-10-12,21,563
2023-10-13,17,537
2023-10-14,19,471
2023-10-15,25,513
2023-10-16,26,579
2023-10-17,21,563
2023-10-18,26,549
2023-10-19,32,549
2023-10-20,20,558
2023-10-21,15,528
2023-10-22,19,515
2023-10-23,20,569
2023-10-24,12,572
2023-10-25,11,562
2023-10-26,23,557
2023-10-27,20,561
2023-10-28,14,512
2023-10-29,12,526
2023-10-30,14,540
2023-10-31,12,582
2023-11-01,11,569
2023-11-02,13,573
2023-11-03,22,552
2023-11-04,25,499
2023-11-05,13,517
2023-11-06,15,550
2023-11-07,22,564
2023-11-08,15,542
2023-11-09,16,551
2023-11-10,10,527
2023-11-11,24,495
2023-11-12,12,510
2023-11-13,19,560
2023-11-14,14,550
2023-11-15,16,539
2023-11-16,14,562
2023-11-17,9,514
2023-11-18,14,469
2023-11-19,14,507
2023-11-20,18,548
2023-11-21,16,564
2023-11-22,9,551
2023-11-23,26,538
2023-11-24,18,567
2023-11-25,13,506
2023-11-26,13,506
2023-11-27,11,579
2023-11-28,19,558
2023-11-29,18,550
2023-11-30,18,547
2023-12-01,12,560
2023-12-02,19,494
2023-12-03,20,522
2023-12-04,11,552
2023-12-05,12,278
2023-12-06,18,251
2023-12-07,16,232
2023-12-08,15,301
2023-12-09,23,235
2023-12-10,27,236
2023-12-11,23,268
2023-12-12,15,241
2023-12-13,23,258
2023-12-14,17,253
2023-12-15,19,238
2023-12-16,21,210
2023-12-17,18,212
2023-12-18,22,256
2023-12-19,21,254
2023-12-20,15,218
2023-12-21,14,225
2023-12-22,8,244
2023-12-23,12,222
2023-12-24,8,229
2023-12-25,14,224
2023-12-26,15,232
2023-12-27,13,252
2023-12-28,18,254
2023-12-29,11,243
2023-12-30,14,213
2023-12-31,11,204
2024-01-01,19,249
2024-01-02,14,256
2024-01-03,13,257
2024-01-04,16,249
2024-01-05,12,234
2024-01-06,13,224
2024-01-07,17,233
2024-01-08,9,250
2024-01-09,14,263
2024-01-10,22,269
2024-01-11,16,248
2024-01-12,16,255
2024-01-13,27,228
2024-01-14,24,246
2024-01-15,12,285
2024-01-16,11,285
2024-01-17,9,257
2024-01-18,13,262
2024-01-19,16,265
2024-01-20,10,241
2024-01-21,4,259
2024-01-22,7,281
2024-01-23,19,413
2024-01-24,7,413
2024-01-25,10,408
2024-01-26,4,374
2024-01-27,16,350
2024-01-28,16,330
2024-01-29,23,400
2024-01-30,15,378
2024-01-31,13,412
2024-02-01,30,392
2024-02-02,27,393
2024-02-03,19,338
2024-02-04,13,345
2024-02-05,28,367
2024-02-06,16,379
2024-02-07,17,337
2024-02-08,13,337
2024-02-09,8,271
2024-02-10,20,279
2024-02-11,17,306
2024-02-12,22,295
2024-02-13,19,313
2024-02-14,18,306
2024-02-15,10,325
2024-02-16,17,325
2024-02-17,14,354
2024-02-18,13,399
2024-02-19,11,388
2024-02-20,10,423
2024-02-21,15,382
2024-02-22,6,420
2024-02-23,14,392
2024-02-24,15,352
2024-02-25,16,352
2024-02-26,17,440
2024-02-27,10,404
2024-02-28,11,408
2024-02-29,14,403
2024-03-01,12,393
2024-03-02,14,376
2024-03-03,9,355
2024-03-04,9,408
2024-03-05,6,412
2024-03-06,7,427
2024-03-07,6,396
2024-03-08,9,392
2024-03-09,17,383
2024-03-10,11,386
2024-03-11,8,431
2024-03-12,11,410
2024-03-13,12,408
2024-03-14,10,421
2024-03-15,14,429
2024-03-16,14,391
2024-03-17,14,377
2024-03-18,15,400
2024-03-19,5,418
2024-03-20,9,433
2024-03-21,13,404
2024-03-22,6,404
2024-03-23,14,369
2024-03-24,14,388
2024-03-25,11,424
2024-03-26,9,400
2024-03-27,15,423
2024-03-28,12,400
2024-03-29,12,400
2024-03-30,10,349
2024-03-31,9,368
2024-04-01,10,401
2024-04-02,10,396
2024-04-03,8,390
2024-04-04,9,354
2024-04-05,10,341
2024-04-06,13,393
2024-04-07,16,419
2024-04-08,13,414
2024-04-09,12,409
2024-04-10,10,424
2024-04-11,7,405
2024-04-12,9,419
2024-04-13,7,381
2024-04-14,11,360
2024-04-15,10,429
2024-04-16,9,403
2024-04-17,15,413
2024-04-18,6,416
2024-04-19,3,407
2024-04-20,16,388
2024-04-21,18,375
2024-04-22,18,426
2024-04-23,14,439
2024-04-24,18,414
2024-04-25,20,432
2024-04-26,12,426
2024-04-27,17,357
2024-04-28,16,439
2024-04-29,5,395
2024-04-30,11,418
2024-05-01,15,353
2024-05-02,8,361
2024-05-03,6,359
2024-05-04,13,362
2024-05-05,8,381
2024-05-06,6,435
2024-05-07,9,432
2024-05-08,4,430
2024-05-09,5,418
2024-05-10,13,420
2024-05-11,15,400
2024-05-12,13,377
2024-05-13,8,418
2024-05-14,12,440
2024-05-15,7,432
2024-05-16,9,416
2024-05-17,78,474
2024-05-18,57,437
2024-05-19,23,465
2024-05-20,19,509
2024-05-21,23,502
2024-05-22,30,515
2024-05-23,19,538
2024-05-24,15,498
2024-05-25,13,484
2024-05-26,12,473
2024-05-27,12,548
2024-05-28,14,497
2024-05-29,10,547
2024-05-30,6,489
2024-05-31,9,536
2024-06-01,5,461
2024-06-02,10,505
2024-06-03,4,543
2024-06-04,14,537
2024-06-05,13,562
2024-06-06,8,524
2024-06-07,3,536
2024-06-08,5,442
2024-06-09,9,432
2024-06-10,4,467
2024-06-11,5,575
2024-06-12,6,510
2024-06-13,4,581
2024-06-14,4,548
2024-06-15,4,476
2024-06-16,8,492
2024-06-17,1,38
